Airfield :
LOGIN :

Register | Disclaimer

   EN    FR    IT 

 










Legend :    VFR   Marginal VFR   IFR   Intensive IFR   Very Intensive IFR
Visi :
Ceiling :
>= 8 km
>= 3000ft
5 to 8 km
1000 to 3000 ft
1500m to 5 km
500 to 1000 ft
800 to 1500m
200 to 500 ft
< 800m
< 200 ft
Symbols :   Thunderstorms  Fog  Heavy snow  Heavy precipitations  Wind > 20 kt
SIGMETs :     Misc.  Thunderstorms  Icing  Turbulence  Mountain Waves  Volcanic Ashes






- Airport Elevation : 65 ft
- IATA code : PMO


LICJ - Palermo Punta Raisi

CURRENT METAR :
  • 190420Z VRB02KT CAVOK 06/01 Q1027

EXPIRED METARs :
  • 190350Z 14006KT CAVOK 07/01 Q1027
  • 190320Z 16004KT CAVOK 07/00 Q1027
  • 190250Z 07003KT CAVOK 08/01 Q1027
  • 190220Z 09007KT CAVOK 09/01 Q1027
  • 190150Z 09006KT CAVOK 08/01 Q1027

TAF TAF LICJ
Valid from the 19 at 00:00 until the 20 at 00:00 UTC


182300Z 1900/1924 VRB05KT 9999 SCT030
BECMG 1906/1908 18010KT



MET'MAP, your aeronautical weather chart ! - Copyright ORBIFLY December 2007 - Disclaimer

ORBIFLY MET'MAP TEAM :

Programming & Development : Alexandra Zaïnal
Concept & original design : Baudouin d'Aumeries
Assistance for programming : Marc-Olivier Méhu
Technical & hardware support : Manuel Goepfert

Contact : metmap@orbifly.com




SOURCES & CREDITS :

   NOAA